星链-36374(STARLINK-36374)

导读 | 豆包AI

STARLINK-36374是美国太空探索技术公司(SpaceX)星链(Starlink)互联网星座的卫星,于2026年1月12日由猎鹰9号火箭从卡纳维拉尔角太空军基地发射,属于Starlink 6-97任务。星链星座旨在近地轨道构建全球覆盖的高速卫星互联网,为基础设施匮乏地区提供宽带服务,同时也具备一定的军事应用潜力。

基本信息
目录编号:
67417
目录名称:
STARLINK-36374
国际标识:
2026-005P
轨道中心:
EARTH
卫星名称:
星链-36374
卫星全名:
星链-36374(STARLINK-36374)
卫星状态:
在轨 (已飞行82 天)
发射日期:
2026-01-12 UTC
国别 :
美国 (US)
星等 :
--
轨道信息
数据来源 国际轨道数据 AOE轨道数据
星历时间 2026-04-03T19:02:34+0800
16小时前
查看轨道信息
2026-04-02T09:00:00+0800
2天前
查看轨道信息
半长轴 6861.1km 6861.189km
偏心率 0.0001153 0.0000833
轨道倾角 43.003° 43.000°
近地点辐角 272.898° 248.620°
升交点赤经 98.190° 106.201°
平近点角 87.174° 221.805°
近地点 482.171km 482.48km
远地点 483.755km 483.624km
周期 94.265分钟 94.267分钟
每日圈数 15.27609 15.275791
详细信息
固有亮度:
5
最大亮度:
2.5
卫星平台:
Starlink V1.0
覆盖范围:
全球
运营商:
太空探索技术公司
运营商所在国:
美国
制造商(研发单位):
太空探索技术公司
制造商所在国:
美国
使用方式:
暂无
卫星简介
Starlink 计划是 SpaceX 推出的全球卫星互联网项目,通过发射低轨道卫星,为全球尤其是偏远地区提供高速、低延迟的互联网服务。自 2019 年起,Starlink 已部署数千颗卫星,旨在缩小全球数字鸿沟,推动互联网普及。该项目还为军事、航空等行业提供通信支持,带来广泛经济效益。
2D轨道图
3D轨道图
轨道高度分析图
轨道倾角分析图
轨道综合分析图
查看轨道综合分析图